Regional Weather Roundup
Issued by NWS

Home | Current Version | Previous Version | Graphics & Text | Print | Product List | Glossary On
Versions: 1 2 3 4 5 6 7 8 9 10 11 12 13 14 15 16 17 18 19 20 21 22 23 24 25 26 27 28 29 30 31 32 33 34 35 36 37 38 39 40 41 42 43 44 45 46 47 48 49 50
000
ASUS43 KLOT 251604
RWRIL

ILLINOIS REGIONAL WEATHER ROUNDUP
NATIONAL WEATHER SERVICE CHICAGO/ROMEOVILLE IL
1100 AM CDT TUE JUL 25 2017

NOTE: "FAIR" INDICATES FEW OR NO CLOUDS BELOW 12,000 FEET WITH NO
SIGNIFICANT WEATHER AND/OR OBSTRUCTIONS TO VISIBILITY.

* THESE STATIONS ARE NOT UNDER NWS QUALITY CONTROL. THEY ALSO MAY NOT
  REPORT WEATHER SUCH AS PRECIPITATION OR FOG.

ILZ001-002-007-009-015-016-024-251700-
NORTHWEST ILLINOIS

CITY           SKY/WX    TMP DP  RH WIND       PRES   REMARKS
MOLINE         SUNNY     76  64  66 S6        30.16R
STERLING*      SUNNY     74  64  71 SE8       30.19R
SAVANNA*       SUNNY     74  64  70 SE6       30.18R
$$

ILZ003-004-008-010-011-017-018-251700-
NORTH CENTRAL ILLINOIS

CITY           SKY/WX    TMP DP  RH WIND       PRES   REMARKS
ROCKFORD       MOSUNNY   76  61  59 S17       30.21S
FREEPORT*      MOSUNNY   72  62  70 S10       30.21S
ROCHELLE*      SUNNY     73  62  68 S12       30.21S
DE KALB*       MOSUNNY   73  62  68 S10       30.22R
PERU*          SUNNY    N/A N/A N/A S12       30.19F
$$

ILZ005-006-012>014-019>023-251700-
NORTHEAST ILLINOIS

CITY           SKY/WX    TMP DP  RH WIND       PRES   REMARKS
CHICAGO-OHARE  MOSUNNY   76  54  46 S13       30.20S
CHICAGO-MIDWAY MOSUNNY   77  56  48 S10       30.19F
AURORA         SUNNY     75  60  59 S13       30.22R
LANSING*       SUNNY     74  57  56 S9G16     30.21F
JOLIET*        SUNNY     75  59  57 SE13      30.20F
WAUKEGAN       SUNNY     74  60  61 S10       30.20S
DUPAGE AIRPORT SUNNY     74  59  59 SE12      30.20S
WHEELING       SUNNY     75  55  49 S13       30.21S
MORRIS*        SUNNY     73  59  60 SE12G17   30.19S
ROMEOVILLE*    SUNNY     74  56  53 SE13G18   30.21S
NORTHERLY ISL    N/A     76  59  55 SE7         N/A
$$

LMZ740>746-251700-
SOUTHERN LAKE MICHIGAN

STATION/POSITION SKY/WX   TEMP    WIND        PRES    VSBY  WAVE
                          AIR SEA DIR/SP/G                  HT/PER
                          (F)     (DEG/KT/KT) (MB)    (MI)  (FT/S)
SOUTHERN BUOY              70 71  160/ 12/ 14 1022.9          1/ 3
WILMETTE HARBOR            70 72  140/ 10/ 14   N/A           2/ 3
HARRISON CRIB              72     150/ 13/ 14   N/A
BURNHAM HARBOR             76                   N/A
CALUMET HARBOR             74     150/  8/ 15 1022.2F
BURNS HARBOR               74     170/  8/ 13 1023.4F
MICHIGAN CITY              71     130/ 11/ 13   N/A
MICHIGAN CITY 6N           72 74  160/ 10/ 14   N/A           2/ 5
ST. JOSEPH                 71 73  190/  6/  8 1023.1F         1/ 5
$$

ILZ025>027-034>036-040-047-049-050-058-095>099-251700-
WEST-CENTRAL ILLINOIS

CITY           SKY/WX    TMP DP  RH WIND       PRES   REMARKS
QUINCY         SUNNY     81  67  62 SE7       30.12S HX  83
GALESBURG*     SUNNY     76  66  71 SE5       30.17S
MACOMB*        SUNNY     77  68  75 SE6       30.17S
JACKSONVILLE*  MOSUNNY   79  68  67 E5        30.13S HX  82
PITTSFIELD*    SUNNY     81  70  69 E6        30.14S HX  84
$$

ILZ028>032-037-038-041>044-048-051>054-059>061-251700-
CENTRAL ILLINOIS

CITY           SKY/WX    TMP DP  RH WIND       PRES   REMARKS
PONTIAC        SUNNY     75  66  74 SE10      30.20S
BLOOMINGTON    SUNNY     76  64  66 SE12      30.19S
DECATUR        SUNNY     77  67  71 SE10      30.16F
PEORIA         SUNNY     76  65  68 SE7       30.16S
LACON*         SUNNY     75  64  68 SE9       30.17F
LINCOLN*       SUNNY     79  68  69 SE7       30.15F HX  81
SPRINGFIELD    SUNNY     81  69  67 E8        30.14F HX  84
TAYLORVILLE    SUNNY     79  68  69 E7        30.14F HX  81
$$

ILZ033-039-045-046-055>057-062-063-251700-
EAST-CENTRAL ILLINOIS

CITY           SKY/WX    TMP DP  RH WIND       PRES   REMARKS
CHAMPAIGN      SUNNY     76  64  66 E7        30.17F
RANTOUL*       SUNNY     77  63  62 SE7       30.19S
MATTOON        SUNNY     78  68  71 MISG      30.15S HX  80
PARIS*         SUNNY     75  67  74 E7        30.18F
$$

ILZ079-100>102-251700-
SOUTHWEST ILLINOIS

CITY           SKY/WX    TMP DP  RH WIND       PRES   REMARKS
ALTON          MOSUNNY   81  72  74 E9        30.12R HX  84
BELLEVILLE     SUNNY     82  72  71 SE7       30.11F HX  86
CAHOKIA*       CLOUDY    84  69  60 E7        30.10S HX  88
SPARTA*        PTSUNNY   82  71  69 CALM      30.11S HX  87
$$

ILZ064>066-069>071-074>076-080>082-084>086-088>090-092>094-251700-
SOUTH-CENTRAL ILLINOIS

CITY           SKY/WX    TMP DP  RH WIND       PRES   REMARKS
CARBONDALE     CLOUDY    79  75  87 CALM      30.10S HX  83
CAIRO*         MOSUNNY   86  79  78 S5        30.07F HX  99
EFFINGHAM*     SUNNY     79  69  71 E7        30.16F HX  81
MARION         CLOUDY    82  75  78 SE8       30.11R HX  89
MT. VERNON     PTSUNNY   80  71  74 E8        30.12S HX  84
CENTRALIA*     SUNNY     81  72  72 SE7       30.11S HX  86
SALEM*         MOSUNNY   81  69  68 SE6       30.13S HX  84
METROPOLIS*    SUNNY     86  78  75 CALM      30.09S HX  98
$$

ILZ067-068-072-073-078-083-087-091-251700-
SOUTHEAST ILLINOIS

CITY           SKY/WX    TMP DP  RH WIND       PRES   REMARKS
LAWRENCEVILLE  SUNNY     77  68  73 E7        30.15S
FLORA*         MOSUNNY   82  69  65 NE9       30.13F HX  85
FAIRFIELD*     SUNNY     80  70  70 NE3       30.12S HX  84
HARRISBURG*    PTSUNNY   82  73  76 E8        30.11S HX  87
ROBINSON*      SUNNY     78  67  69 E5        30.17S
CARMI*         PTSUNNY   81  72  75 E7        30.11F HX  85
$$

ABBREVIATIONS USED IN REMARKS
   TC - TEMPERATURE IN CELSIUS
  WCI - WIND CHILL INDEX
   HX - HEAT INDEX
  VSB - VISIBILITY
$$




USA.gov is the U.S. government's official web portal to all federal, state and local government web resources and services.